Погода в Пае

Таиланд     19°22′01″N   98°25′25″E
темп.,
°C
ветер,
м/с
пор.,
м/с
влажн.,
%
обл.,
%
осадки,
мм/ч
давл.,
гПа
погр.,
м
8 марта, пн
пн801:00+15зюз012411 0.0 101523
04:00+14зсз012836 0.0 101423
07:00+13ююз013149 0.0 101623
10:00+30зсз121525 0.0 1016794
13:00+34зсз24915 0.0 10123246
16:00+32з35927 0.0 10102953
19:00+21ююз012014 0.0 101123
22:00+17ю112520 0.0 101523
9 марта, вт
вт901:00+15сз112910 0.0 101423
04:00+14ююв01310 0.0 101423
07:00+14зюз01340 0.0 101523
10:00+30з11150 0.0 1016685
13:00+36сз1490 0.0 10133341
16:00+32з33110 0.0 10093343
19:00+22з11200 0.0 101123
22:00+18ю112617 0.0 101523
10 марта, ср
ср1001:00+16ю012939 0.0 101423
04:00+14з003145 0.0 101423
07:00+14зсз013435 0.0 101623
10:00+30зсз11150 0.0 1016497
13:00+34сз131012 0.0 10123305
16:00+33зсз33110 0.0 10093463
19:00+22зсз11210 0.0 101023
22:00+18ююв11250 0.0 101423
11 марта, чт
чт1101:00+17юв11270 0.0 101423
04:00+15зсз01310 0.0 101423
07:00+14зсз01340 0.0 101523
10:00+31зсз11150 0.0 1016530
13:00+36сз12110 0.0 10123489
16:00+34зсз33111 0.0 10093749
19:00+23з11221 0.0 101124
22:00+19юв11270 0.0 101423
12 марта, пт
пт1201:00+17св01310 0.0 101423
04:00+16сз01370 0.0 101323
07:00+15зсз00390 0.0 101623
10:00+31сз11170 0.0 1016651
13:00+37зсз12120 0.0 10123446
16:00+35зсз12120 0.0 10093693
19:00+24зсз11230 0.0 101024
22:00+20ю01300 0.0 101323